Year,Month,Day,Hour,Minute,Value (Times are PST for windspeed in km/hr)
2021,03,28,00,00,0.00
2021,03,28,00,01,0.00
2021,03,28,00,02,0.00
2021,03,28,00,03,0.00
2021,03,28,00,04,0.00
2021,03,28,00,05,0.00
2021,03,28,00,06,2.90
2021,03,28,00,07,1.90
2021,03,28,00,08,0.30
2021,03,28,00,09,1.70
2021,03,28,00,10,3.20
2021,03,28,00,11,2.00
2021,03,28,00,12,1.90
2021,03,28,00,13,3.60
2021,03,28,00,14,2.70
2021,03,28,00,15,3.00
2021,03,28,00,16,0.80
2021,03,28,00,17,0.10
2021,03,28,00,18,0.40
2021,03,28,00,19,0.70
2021,03,28,00,20,0.00
2021,03,28,00,21,0.20
2021,03,28,00,22,2.30
2021,03,28,00,23,0.80
2021,03,28,00,24,3.10
2021,03,28,00,25,2.70
2021,03,28,00,26,3.00
2021,03,28,00,27,0.20
2021,03,28,00,28,1.30
2021,03,28,00,29,0.20
2021,03,28,00,30,2.50
2021,03,28,00,31,2.90
2021,03,28,00,32,3.30
2021,03,28,00,33,7.70
2021,03,28,00,34,4.40
2021,03,28,00,35,4.00
2021,03,28,00,36,3.50
2021,03,28,00,37,3.90
2021,03,28,00,38,4.50
2021,03,28,00,39,5.20
2021,03,28,00,40,3.20
2021,03,28,00,41,4.10
2021,03,28,00,42,5.10
2021,03,28,00,43,2.20
2021,03,28,00,44,1.30
2021,03,28,00,45,4.80
2021,03,28,00,46,5.90
2021,03,28,00,47,6.00
2021,03,28,00,48,3.60
2021,03,28,00,49,3.90
2021,03,28,00,50,6.60
2021,03,28,00,51,3.00
2021,03,28,00,52,8.90
2021,03,28,00,53,6.40
2021,03,28,00,54,3.50
2021,03,28,00,55,7.80
2021,03,28,00,56,7.20
2021,03,28,00,57,10.80
2021,03,28,00,58,6.30
2021,03,28,00,59,7.80
2021,03,28,01,00,7.10
2021,03,28,01,01,7.60
2021,03,28,01,02,2.90
2021,03,28,01,03,7.20
2021,03,28,01,04,10.00
2021,03,28,01,05,9.70
2021,03,28,01,06,9.70
2021,03,28,01,07,8.30
2021,03,28,01,08,6.80
2021,03,28,01,09,7.90
2021,03,28,01,10,9.70
2021,03,28,01,11,12.90
2021,03,28,01,12,11.00
2021,03,28,01,13,14.20
2021,03,28,01,14,12.80
2021,03,28,01,15,13.80
2021,03,28,01,16,11.20
2021,03,28,01,17,8.70
2021,03,28,01,18,13.70
2021,03,28,01,19,10.30
2021,03,28,01,20,16.60
2021,03,28,01,21,13.00
2021,03,28,01,22,12.20
2021,03,28,01,23,11.90
2021,03,28,01,24,15.00
2021,03,28,01,25,13.50
2021,03,28,01,26,10.80
2021,03,28,01,27,12.30
2021,03,28,01,28,9.30
2021,03,28,01,29,11.70
2021,03,28,01,30,12.30
2021,03,28,01,31,10.20
2021,03,28,01,32,9.70
2021,03,28,01,33,11.10
2021,03,28,01,34,10.40
2021,03,28,01,35,9.40
2021,03,28,01,36,12.10
2021,03,28,01,37,12.00
2021,03,28,01,38,8.10
2021,03,28,01,39,9.40
2021,03,28,01,40,14.20
2021,03,28,01,41,14.50
2021,03,28,01,42,12.00
2021,03,28,01,43,7.10
2021,03,28,01,44,8.50
2021,03,28,01,45,11.20
2021,03,28,01,46,10.40
2021,03,28,01,47,12.40
2021,03,28,01,48,12.60
2021,03,28,01,49,12.80
2021,03,28,01,50,14.00
2021,03,28,01,51,11.60
2021,03,28,01,52,9.80
2021,03,28,01,53,11.00
2021,03,28,01,54,10.80
2021,03,28,01,55,11.80
2021,03,28,01,56,10.90
2021,03,28,01,57,13.20
2021,03,28,01,58,12.70
2021,03,28,01,59,11.40
2021,03,28,02,00,11.30
2021,03,28,02,01,12.00
2021,03,28,02,02,11.40
2021,03,28,02,03,13.00
2021,03,28,02,04,13.60
2021,03,28,02,05,11.00
2021,03,28,02,06,11.00
2021,03,28,02,07,15.40
2021,03,28,02,08,13.50
2021,03,28,02,09,12.60
2021,03,28,02,10,12.00
2021,03,28,02,11,13.30
2021,03,28,02,12,10.20
2021,03,28,02,13,10.70
2021,03,28,02,14,10.80
2021,03,28,02,15,10.10
2021,03,28,02,16,12.60
2021,03,28,02,17,12.40
2021,03,28,02,18,10.70
2021,03,28,02,19,11.90
2021,03,28,02,20,13.20
2021,03,28,02,21,10.30
2021,03,28,02,22,12.60
2021,03,28,02,23,8.90
2021,03,28,02,24,11.20
2021,03,28,02,25,9.00
2021,03,28,02,26,9.80
2021,03,28,02,27,12.10
2021,03,28,02,28,13.60
2021,03,28,02,29,9.00
2021,03,28,02,30,9.10
2021,03,28,02,31,11.80
2021,03,28,02,32,10.90
2021,03,28,02,33,12.10
2021,03,28,02,34,10.40
2021,03,28,02,35,10.70
2021,03,28,02,36,8.80
2021,03,28,02,37,9.80
2021,03,28,02,38,9.50
2021,03,28,02,39,10.30
2021,03,28,02,40,7.70
2021,03,28,02,41,9.50
2021,03,28,02,42,8.50
2021,03,28,02,43,7.60
2021,03,28,02,44,10.10
2021,03,28,02,45,9.10
2021,03,28,02,46,10.00
2021,03,28,02,47,9.60
2021,03,28,02,48,9.00
2021,03,28,02,49,8.40
2021,03,28,02,50,8.30
2021,03,28,02,51,6.70
2021,03,28,02,52,9.70
2021,03,28,02,53,9.60
2021,03,28,02,54,8.30
2021,03,28,02,55,12.90
2021,03,28,02,56,7.20
2021,03,28,02,57,10.90
2021,03,28,02,58,11.10
2021,03,28,02,59,13.40
2021,03,28,03,00,8.30
2021,03,28,03,01,6.80
2021,03,28,03,02,9.70
2021,03,28,03,03,8.00
2021,03,28,03,04,10.00
2021,03,28,03,05,10.90
2021,03,28,03,06,11.40
2021,03,28,03,07,12.60
2021,03,28,03,08,11.80
2021,03,28,03,09,11.80
2021,03,28,03,10,8.70
2021,03,28,03,11,5.50
2021,03,28,03,12,9.80
2021,03,28,03,13,9.40
2021,03,28,03,14,7.50
2021,03,28,03,15,9.70
2021,03,28,03,16,11.00
2021,03,28,03,17,10.20
2021,03,28,03,18,12.30
2021,03,28,03,19,12.70
2021,03,28,03,20,12.60
2021,03,28,03,21,8.60
2021,03,28,03,22,9.70
2021,03,28,03,23,10.20
2021,03,28,03,24,10.90
2021,03,28,03,25,8.60
2021,03,28,03,26,11.70
2021,03,28,03,27,10.20
2021,03,28,03,28,10.30
2021,03,28,03,29,11.20
2021,03,28,03,30,10.00
2021,03,28,03,31,7.00
2021,03,28,03,32,8.60
2021,03,28,03,33,9.50
2021,03,28,03,34,7.50
2021,03,28,03,35,9.30
2021,03,28,03,36,7.70
2021,03,28,03,37,8.60
2021,03,28,03,38,9.30
2021,03,28,03,39,10.20
2021,03,28,03,40,10.30
2021,03,28,03,41,11.10
2021,03,28,03,42,7.90
2021,03,28,03,43,11.00
2021,03,28,03,44,9.70
2021,03,28,03,45,12.00
2021,03,28,03,46,9.10
2021,03,28,03,47,11.00
2021,03,28,03,48,10.00
2021,03,28,03,49,9.40
2021,03,28,03,50,8.30
2021,03,28,03,51,10.20
2021,03,28,03,52,6.00
2021,03,28,03,53,11.00
2021,03,28,03,54,10.00
2021,03,28,03,55,7.30
2021,03,28,03,56,8.10
2021,03,28,03,57,8.90
2021,03,28,03,58,9.30
2021,03,28,03,59,9.80
2021,03,28,04,00,9.70
2021,03,28,04,01,9.60
2021,03,28,04,02,8.70
2021,03,28,04,03,10.80
2021,03,28,04,04,8.40
2021,03,28,04,05,10.70
2021,03,28,04,06,8.70
2021,03,28,04,07,9.40
2021,03,28,04,08,7.40
2021,03,28,04,09,7.20
2021,03,28,04,10,8.30
2021,03,28,04,11,12.40
2021,03,28,04,12,13.00
2021,03,28,04,13,11.60
2021,03,28,04,14,8.60
2021,03,28,04,15,11.70
2021,03,28,04,16,9.50
2021,03,28,04,17,9.40
2021,03,28,04,18,10.60
2021,03,28,04,19,10.10
2021,03,28,04,20,14.20
2021,03,28,04,21,11.30
2021,03,28,04,22,15.60
2021,03,28,04,23,11.10
2021,03,28,04,24,10.60
2021,03,28,04,25,10.50
2021,03,28,04,26,11.00
2021,03,28,04,27,12.00
2021,03,28,04,28,11.40
2021,03,28,04,29,11.60
2021,03,28,04,30,11.90
2021,03,28,04,31,9.70
2021,03,28,04,32,8.70
2021,03,28,04,33,13.00
2021,03,28,04,34,9.70
2021,03,28,04,35,12.90
2021,03,28,04,36,10.00
2021,03,28,04,37,13.40
2021,03,28,04,38,11.80
2021,03,28,04,39,13.10
2021,03,28,04,40,10.70
2021,03,28,04,41,12.50
2021,03,28,04,42,12.50
2021,03,28,04,43,10.30
2021,03,28,04,44,10.40
2021,03,28,04,45,11.60
2021,03,28,04,46,9.60
2021,03,28,04,47,11.90
2021,03,28,04,48,9.20
2021,03,28,04,49,11.60
2021,03,28,04,50,8.00
2021,03,28,04,51,12.80
2021,03,28,04,52,7.60
2021,03,28,04,53,9.40
2021,03,28,04,54,8.40
2021,03,28,04,55,9.20
2021,03,28,04,56,8.10
2021,03,28,04,57,8.10
2021,03,28,04,58,8.30
2021,03,28,04,59,5.40
2021,03,28,05,00,8.10
2021,03,28,05,01,10.40
2021,03,28,05,02,6.20
2021,03,28,05,03,11.00
2021,03,28,05,04,9.20
2021,03,28,05,05,9.70
2021,03,28,05,06,11.00
2021,03,28,05,07,7.10
2021,03,28,05,08,9.10
2021,03,28,05,09,10.90
2021,03,28,05,10,12.00
2021,03,28,05,11,9.40
2021,03,28,05,12,7.40
2021,03,28,05,13,8.00
2021,03,28,05,14,12.20
2021,03,28,05,15,8.40
2021,03,28,05,16,8.30
2021,03,28,05,17,5.00
2021,03,28,05,18,9.40
2021,03,28,05,19,8.50
2021,03,28,05,20,10.00
2021,03,28,05,21,5.90
2021,03,28,05,22,5.40
2021,03,28,05,23,12.80
2021,03,28,05,24,10.00
2021,03,28,05,25,8.60
2021,03,28,05,26,5.70
2021,03,28,05,27,3.40
2021,03,28,05,28,7.50
2021,03,28,05,29,4.00
2021,03,28,05,30,5.50
2021,03,28,05,31,4.40
2021,03,28,05,32,5.80
2021,03,28,05,33,5.20
2021,03,28,05,34,6.80
2021,03,28,05,35,3.10
2021,03,28,05,36,0.20
2021,03,28,05,37,2.30
2021,03,28,05,38,5.30
2021,03,28,05,39,6.80
2021,03,28,05,40,2.00
2021,03,28,05,41,5.60
2021,03,28,05,42,3.80
2021,03,28,05,43,4.80
2021,03,28,05,44,2.20
2021,03,28,05,45,2.70
2021,03,28,05,46,2.50
2021,03,28,05,47,0.50
2021,03,28,05,48,2.20
2021,03,28,05,49,2.80
2021,03,28,05,50,4.70
2021,03,28,05,51,3.60
2021,03,28,05,52,1.60
2021,03,28,05,53,4.70
2021,03,28,05,54,2.00
2021,03,28,05,55,2.50
2021,03,28,05,56,3.50
2021,03,28,05,57,3.20
2021,03,28,05,58,1.00
2021,03,28,05,59,5.10
2021,03,28,06,00,6.40
2021,03,28,06,01,2.50
2021,03,28,06,02,3.40
2021,03,28,06,03,4.60
2021,03,28,06,04,2.30
2021,03,28,06,05,2.70
2021,03,28,06,06,0.10
2021,03,28,06,07,2.80
2021,03,28,06,08,2.50
2021,03,28,06,09,2.20
2021,03,28,06,10,2.20
2021,03,28,06,11,2.30
2021,03,28,06,12,0.10
2021,03,28,06,13,0.00
2021,03,28,06,14,0.00
2021,03,28,06,15,0.00
2021,03,28,06,16,0.00
2021,03,28,06,17,0.00
2021,03,28,06,18,2.50
2021,03,28,06,19,0.80
2021,03,28,06,20,0.00
2021,03,28,06,21,0.00
2021,03,28,06,22,0.00
2021,03,28,06,23,0.00
2021,03,28,06,24,0.00
2021,03,28,06,25,0.00
2021,03,28,06,26,0.00
2021,03,28,06,27,0.00
2021,03,28,06,28,0.00
2021,03,28,06,29,0.00
2021,03,28,06,30,0.50
2021,03,28,06,31,0.00
2021,03,28,06,32,0.00
2021,03,28,06,33,0.10
2021,03,28,06,34,0.20
2021,03,28,06,35,0.00
2021,03,28,06,36,0.10
2021,03,28,06,37,0.00
2021,03,28,06,38,0.20
2021,03,28,06,39,0.00
2021,03,28,06,40,0.00
2021,03,28,06,41,0.00
2021,03,28,06,42,0.00
2021,03,28,06,43,0.00
2021,03,28,06,44,0.00
2021,03,28,06,45,0.00
2021,03,28,06,46,0.00
2021,03,28,06,47,0.00
2021,03,28,06,48,0.50
2021,03,28,06,49,0.00
2021,03,28,06,50,0.70
2021,03,28,06,51,1.80
2021,03,28,06,52,0.60
2021,03,28,06,53,0.00
2021,03,28,06,54,0.00
2021,03,28,06,55,0.00
2021,03,28,06,56,0.00
2021,03,28,06,57,0.00
2021,03,28,06,58,0.00
2021,03,28,06,59,0.00
2021,03,28,07,00,0.00
2021,03,28,07,01,0.00
2021,03,28,07,02,0.00
2021,03,28,07,03,0.00
2021,03,28,07,04,0.00
2021,03,28,07,05,0.00
2021,03,28,07,06,0.00
2021,03,28,07,07,0.00
2021,03,28,07,08,0.00
2021,03,28,07,09,0.00
2021,03,28,07,10,0.00
2021,03,28,07,11,0.00
2021,03,28,07,12,0.00
2021,03,28,07,13,0.00
2021,03,28,07,14,0.00
2021,03,28,07,15,0.00
2021,03,28,07,16,0.00
2021,03,28,07,17,0.00
2021,03,28,07,18,0.00
2021,03,28,07,19,0.10
2021,03,28,07,20,0.00
2021,03,28,07,21,0.00
2021,03,28,07,22,0.00
2021,03,28,07,23,0.00
2021,03,28,07,24,0.00
2021,03,28,07,25,0.00
2021,03,28,07,26,0.00
2021,03,28,07,27,0.00
2021,03,28,07,28,0.00
2021,03,28,07,29,0.00
2021,03,28,07,30,0.00
2021,03,28,07,31,0.00
2021,03,28,07,32,0.00
2021,03,28,07,33,0.00
2021,03,28,07,34,0.00
2021,03,28,07,35,0.00
2021,03,28,07,36,0.00
2021,03,28,07,37,0.00
2021,03,28,07,38,0.00
2021,03,28,07,39,0.00
2021,03,28,07,40,0.00
2021,03,28,07,41,0.00
2021,03,28,07,42,0.00
2021,03,28,07,43,0.00
2021,03,28,07,44,0.00
2021,03,28,07,45,0.00
2021,03,28,07,46,0.00
2021,03,28,07,47,0.00
2021,03,28,07,48,0.00
2021,03,28,07,49,0.00
2021,03,28,07,50,0.00
2021,03,28,07,51,0.00
2021,03,28,07,52,0.00
2021,03,28,07,53,0.00
2021,03,28,07,54,0.00
2021,03,28,07,55,0.00
2021,03,28,07,56,0.00
2021,03,28,07,57,0.00
2021,03,28,07,58,0.00
2021,03,28,07,59,0.00
2021,03,28,08,00,0.00
2021,03,28,08,01,0.00
2021,03,28,08,02,0.00
2021,03,28,08,03,0.00
2021,03,28,08,04,0.00
2021,03,28,08,05,0.00
2021,03,28,08,06,0.00
2021,03,28,08,07,0.00
2021,03,28,08,08,0.00
2021,03,28,08,09,0.00
2021,03,28,08,10,0.00
2021,03,28,08,11,0.00
2021,03,28,08,12,0.00
2021,03,28,08,13,0.00
2021,03,28,08,14,0.00
2021,03,28,08,15,0.00
2021,03,28,08,16,0.00
2021,03,28,08,17,0.00
2021,03,28,08,18,0.00
2021,03,28,08,19,0.00
2021,03,28,08,20,0.60
2021,03,28,08,21,1.20
2021,03,28,08,22,1.80
2021,03,28,08,23,0.60
2021,03,28,08,24,0.80
2021,03,28,08,25,0.00
2021,03,28,08,26,0.10
2021,03,28,08,27,0.00
2021,03,28,08,28,0.00
2021,03,28,08,29,0.00
2021,03,28,08,30,0.20
2021,03,28,08,31,0.30
2021,03,28,08,32,0.00
2021,03,28,08,33,0.00
2021,03,28,08,34,0.00
2021,03,28,08,35,0.00
2021,03,28,08,36,0.00
2021,03,28,08,37,0.00
2021,03,28,08,38,0.10
2021,03,28,08,39,0.10
2021,03,28,08,40,2.10
2021,03,28,08,41,1.70
2021,03,28,08,42,1.90
2021,03,28,08,43,0.20
2021,03,28,08,44,0.10
2021,03,28,08,45,0.60
2021,03,28,08,46,0.00
2021,03,28,08,47,0.00
2021,03,28,08,48,0.00
2021,03,28,08,49,0.00
2021,03,28,08,50,0.30
2021,03,28,08,51,0.00
2021,03,28,08,52,0.20
2021,03,28,08,53,1.10
2021,03,28,08,54,0.80
2021,03,28,08,55,1.20
2021,03,28,08,56,0.90
2021,03,28,08,57,0.00
2021,03,28,08,58,0.00
2021,03,28,08,59,0.00
2021,03,28,09,00,0.00
2021,03,28,09,01,0.50
2021,03,28,09,02,0.00
2021,03,28,09,03,0.00
2021,03,28,09,04,0.00
2021,03,28,09,05,0.00
2021,03,28,09,06,0.00
2021,03,28,09,07,0.00
2021,03,28,09,08,0.00
2021,03,28,09,09,0.00
2021,03,28,09,10,0.00
2021,03,28,09,11,0.00
2021,03,28,09,12,0.00
2021,03,28,09,13,0.00
2021,03,28,09,14,0.00
2021,03,28,09,15,0.00
2021,03,28,09,16,0.00
2021,03,28,09,17,0.00
2021,03,28,09,18,0.50
2021,03,28,09,19,0.10
2021,03,28,09,20,0.00
2021,03,28,09,21,0.00
2021,03,28,09,22,0.00
2021,03,28,09,23,0.00
2021,03,28,09,24,0.00
2021,03,28,09,25,0.00
2021,03,28,09,26,0.00
2021,03,28,09,27,0.00
2021,03,28,09,28,0.00
2021,03,28,09,29,0.00
2021,03,28,09,30,0.00
2021,03,28,09,31,0.00
2021,03,28,09,32,0.00
2021,03,28,09,33,0.00
2021,03,28,09,34,0.00
2021,03,28,09,35,0.00
2021,03,28,09,36,0.00
2021,03,28,09,37,0.00
2021,03,28,09,38,0.00
2021,03,28,09,39,0.00
2021,03,28,09,40,0.10
2021,03,28,09,41,0.00
2021,03,28,09,42,0.00
2021,03,28,09,43,0.10
2021,03,28,09,44,0.00
2021,03,28,09,45,0.00
2021,03,28,09,46,0.00
2021,03,28,09,47,0.00
2021,03,28,09,48,0.00
2021,03,28,09,49,0.00
2021,03,28,09,50,0.00
2021,03,28,09,51,0.00
2021,03,28,09,52,0.00
2021,03,28,09,53,0.00
2021,03,28,09,54,0.20
2021,03,28,09,55,0.90
2021,03,28,09,56,0.60
2021,03,28,09,57,0.00
2021,03,28,09,58,0.00
2021,03,28,09,59,0.10
2021,03,28,10,00,0.00
2021,03,28,10,01,0.00
2021,03,28,10,02,0.00
2021,03,28,10,03,0.00
2021,03,28,10,04,0.00
2021,03,28,10,05,0.00
2021,03,28,10,06,0.00
2021,03,28,10,07,0.00
2021,03,28,10,08,0.00
2021,03,28,10,09,0.20
2021,03,28,10,10,0.10
2021,03,28,10,11,0.10
2021,03,28,10,12,1.80
2021,03,28,10,13,1.00
2021,03,28,10,14,0.80
2021,03,28,10,15,3.40
2021,03,28,10,16,0.00
2021,03,28,10,17,0.00
2021,03,28,10,18,0.20
2021,03,28,10,19,1.90
2021,03,28,10,20,2.30
2021,03,28,10,21,2.10
2021,03,28,10,22,1.10
2021,03,28,10,23,2.10
2021,03,28,10,24,2.50
2021,03,28,10,25,0.10
2021,03,28,10,26,0.10
2021,03,28,10,27,0.60
2021,03,28,10,28,0.80
2021,03,28,10,29,0.00
2021,03,28,10,30,0.00
2021,03,28,10,31,2.30
2021,03,28,10,32,1.90
2021,03,28,10,33,0.20
2021,03,28,10,34,0.50
2021,03,28,10,35,1.00
2021,03,28,10,36,5.10
2021,03,28,10,37,2.40
2021,03,28,10,38,0.40
2021,03,28,10,39,1.80
2021,03,28,10,40,2.80
2021,03,28,10,41,1.00
2021,03,28,10,42,1.50
2021,03,28,10,43,1.10
2021,03,28,10,44,1.00
2021,03,28,10,45,0.50
2021,03,28,10,46,1.30
2021,03,28,10,47,0.20
2021,03,28,10,48,0.00
2021,03,28,10,49,1.60
2021,03,28,10,50,2.20
2021,03,28,10,51,1.80
2021,03,28,10,52,0.20
2021,03,28,10,53,1.60
2021,03,28,10,54,1.20
2021,03,28,10,55,2.00
2021,03,28,10,56,2.80
2021,03,28,10,57,1.90
2021,03,28,10,58,2.70
2021,03,28,10,59,3.50
2021,03,28,11,00,4.00
2021,03,28,11,01,3.10
2021,03,28,11,02,1.00
2021,03,28,11,03,0.70
2021,03,28,11,04,1.80
2021,03,28,11,05,1.90
2021,03,28,11,06,0.40
2021,03,28,11,07,1.00
2021,03,28,11,08,3.30
2021,03,28,11,09,1.00
2021,03,28,11,10,1.80
2021,03,28,11,11,1.30
2021,03,28,11,12,0.20
2021,03,28,11,13,0.60
2021,03,28,11,14,0.00
2021,03,28,11,15,0.00
2021,03,28,11,16,0.00
2021,03,28,11,17,0.00
2021,03,28,11,18,0.60
2021,03,28,11,19,0.00
2021,03,28,11,20,0.70
2021,03,28,11,21,2.30
2021,03,28,11,22,1.40
2021,03,28,11,23,0.00
2021,03,28,11,24,0.30
2021,03,28,11,25,0.60
2021,03,28,11,26,0.00
2021,03,28,11,27,0.00
2021,03,28,11,28,0.00
2021,03,28,11,29,0.00
2021,03,28,11,30,0.00
2021,03,28,11,31,0.00
2021,03,28,11,32,0.00
2021,03,28,11,33,0.10
2021,03,28,11,34,0.00
2021,03,28,11,35,0.00
2021,03,28,11,36,0.00
2021,03,28,11,37,0.00
2021,03,28,11,38,0.00
2021,03,28,11,39,0.00
2021,03,28,11,40,0.00
2021,03,28,11,41,0.00
2021,03,28,11,42,0.00
2021,03,28,11,43,0.00
2021,03,28,11,44,0.00
2021,03,28,11,45,0.00
2021,03,28,11,46,0.00
2021,03,28,11,47,0.10
2021,03,28,11,48,0.00
2021,03,28,11,49,0.00
2021,03,28,11,50,0.00
2021,03,28,11,51,0.00
2021,03,28,11,52,0.00
2021,03,28,11,53,0.00
2021,03,28,11,54,0.00
2021,03,28,11,55,0.20
2021,03,28,11,56,0.00
2021,03,28,11,57,0.00
2021,03,28,11,58,0.00
2021,03,28,11,59,0.00
2021,03,28,12,00,0.20
2021,03,28,12,01,0.60
2021,03,28,12,02,0.60
2021,03,28,12,03,0.30
2021,03,28,12,04,0.00
2021,03,28,12,05,0.40
2021,03,28,12,06,0.20
2021,03,28,12,07,0.00
2021,03,28,12,08,0.00
2021,03,28,12,09,0.00
2021,03,28,12,10,0.00
2021,03,28,12,11,0.00
2021,03,28,12,12,0.00
2021,03,28,12,13,0.00
2021,03,28,12,14,0.00
2021,03,28,12,15,0.00
2021,03,28,12,16,0.00
2021,03,28,12,17,0.00
2021,03,28,12,18,0.10
2021,03,28,12,19,0.00
2021,03,28,12,20,0.20
2021,03,28,12,21,0.80
2021,03,28,12,22,0.90
2021,03,28,12,23,5.50
2021,03,28,12,24,5.80
2021,03,28,12,25,5.70
2021,03,28,12,26,6.00
2021,03,28,12,27,4.30
2021,03,28,12,28,5.70
2021,03,28,12,29,8.20
2021,03,28,12,30,2.70
2021,03,28,12,31,6.10
2021,03,28,12,32,6.00
2021,03,28,12,33,6.10
2021,03,28,12,34,7.60
2021,03,28,12,35,5.70
2021,03,28,12,36,7.60
2021,03,28,12,37,6.90
2021,03,28,12,38,6.30
2021,03,28,12,39,8.90
2021,03,28,12,40,9.20
2021,03,28,12,41,7.70
2021,03,28,12,42,8.40
2021,03,28,12,43,8.90
2021,03,28,12,44,10.70
2021,03,28,12,45,13.80
2021,03,28,12,46,11.00
2021,03,28,12,47,13.00
2021,03,28,12,48,12.70
2021,03,28,12,49,11.70
2021,03,28,12,50,7.60
2021,03,28,12,51,8.90
2021,03,28,12,52,11.60
2021,03,28,12,53,6.70
2021,03,28,12,54,5.70
2021,03,28,12,55,3.50
2021,03,28,12,56,9.50
2021,03,28,12,57,10.20
2021,03,28,12,58,7.60
2021,03,28,12,59,5.60
2021,03,28,13,00,9.90
2021,03,28,13,01,8.00
2021,03,28,13,02,9.20
2021,03,28,13,03,8.90
2021,03,28,13,04,5.10
2021,03,28,13,05,10.50
2021,03,28,13,06,14.10
2021,03,28,13,07,10.70
2021,03,28,13,08,18.20
2021,03,28,13,09,8.00
2021,03,28,13,10,12.50
2021,03,28,13,11,11.40
2021,03,28,13,12,8.00
2021,03,28,13,13,7.20
2021,03,28,13,14,7.40
2021,03,28,13,15,11.30
2021,03,28,13,16,8.00
2021,03,28,13,17,8.00
2021,03,28,13,18,6.20
2021,03,28,13,19,8.80
2021,03,28,13,20,6.00
2021,03,28,13,21,8.90
2021,03,28,13,22,8.90
2021,03,28,13,23,6.00
2021,03,28,13,24,5.80
2021,03,28,13,25,6.70
2021,03,28,13,26,7.00
2021,03,28,13,27,8.00
2021,03,28,13,28,6.30
2021,03,28,13,29,11.60
2021,03,28,13,30,8.80
2021,03,28,13,31,6.10
2021,03,28,13,32,8.40
2021,03,28,13,33,11.60
2021,03,28,13,34,8.50
2021,03,28,13,35,13.00
2021,03,28,13,36,10.50
2021,03,28,13,37,8.60
2021,03,28,13,38,6.30
2021,03,28,13,39,7.10
2021,03,28,13,40,8.10
2021,03,28,13,41,9.10
2021,03,28,13,42,6.40
2021,03,28,13,43,2.10
2021,03,28,13,44,4.40
2021,03,28,13,45,6.10
2021,03,28,13,46,5.50
2021,03,28,13,47,7.50
2021,03,28,13,48,3.10
2021,03,28,13,49,5.90
2021,03,28,13,50,9.30
2021,03,28,13,51,10.30
2021,03,28,13,52,4.70
2021,03,28,13,53,2.60
2021,03,28,13,54,4.60
2021,03,28,13,55,10.50
2021,03,28,13,56,5.30
2021,03,28,13,57,5.20
2021,03,28,13,58,0.70
2021,03,28,13,59,7.60
2021,03,28,14,00,4.60
2021,03,28,14,01,4.70
2021,03,28,14,02,7.50
2021,03,28,14,03,12.30
2021,03,28,14,04,12.60
2021,03,28,14,05,11.70
2021,03,28,14,06,6.00
2021,03,28,14,07,15.30
2021,03,28,14,08,9.10
2021,03,28,14,09,7.20
2021,03,28,14,10,8.10
2021,03,28,14,11,9.30
2021,03,28,14,12,8.00
2021,03,28,14,13,8.40
2021,03,28,14,14,5.90
2021,03,28,14,15,9.00
2021,03,28,14,16,8.90
2021,03,28,14,17,11.00
2021,03,28,14,18,9.00
2021,03,28,14,19,15.60
2021,03,28,14,20,11.10
2021,03,28,14,21,10.10
2021,03,28,14,22,9.20
2021,03,28,14,23,10.30
2021,03,28,14,24,11.80
2021,03,28,14,25,5.30
2021,03,28,14,26,15.00
2021,03,28,14,27,9.40
2021,03,28,14,28,12.60
2021,03,28,14,29,4.30
2021,03,28,14,30,5.50
2021,03,28,14,31,4.70
2021,03,28,14,32,5.80
2021,03,28,14,33,5.20
2021,03,28,14,34,11.70
2021,03,28,14,35,12.90
2021,03,28,14,36,9.20
2021,03,28,14,37,13.40
2021,03,28,14,38,7.50
2021,03,28,14,39,6.70
2021,03,28,14,40,12.30
2021,03,28,14,41,8.30
2021,03,28,14,42,11.20
2021,03,28,14,43,7.40
2021,03,28,14,44,5.60
2021,03,28,14,45,7.40
2021,03,28,14,46,10.20
2021,03,28,14,47,14.70
2021,03,28,14,48,8.70
2021,03,28,14,49,8.40
2021,03,28,14,50,9.30
2021,03,28,14,51,19.20
2021,03,28,14,52,13.20
2021,03,28,14,53,8.90
2021,03,28,14,54,10.70
2021,03,28,14,55,9.40
2021,03,28,14,56,12.20
2021,03,28,14,57,10.30
2021,03,28,14,58,17.40
2021,03,28,14,59,14.30
2021,03,28,15,00,19.80
2021,03,28,15,01,11.30
2021,03,28,15,02,11.80
2021,03,28,15,03,30.60
2021,03,28,15,04,22.90
2021,03,28,15,05,20.80
2021,03,28,15,06,25.70
2021,03,28,15,07,20.10
2021,03,28,15,08,19.50
2021,03,28,15,09,19.60
2021,03,28,15,10,21.40
2021,03,28,15,11,24.20
2021,03,28,15,12,18.50
2021,03,28,15,13,14.40
2021,03,28,15,14,20.30
2021,03,28,15,15,16.90
2021,03,28,15,16,11.80
2021,03,28,15,17,14.60
2021,03,28,15,18,14.50
2021,03,28,15,19,16.20
2021,03,28,15,20,12.40
2021,03,28,15,21,9.70
2021,03,28,15,22,10.40
2021,03,28,15,23,12.70
2021,03,28,15,24,10.90
2021,03,28,15,25,8.10
2021,03,28,15,26,11.40
2021,03,28,15,27,8.20
2021,03,28,15,28,12.70
2021,03,28,15,29,8.00
2021,03,28,15,30,5.60
2021,03,28,15,31,8.10
2021,03,28,15,32,11.70
2021,03,28,15,33,16.10
2021,03,28,15,34,5.30
2021,03,28,15,35,10.30
2021,03,28,15,36,10.90
2021,03,28,15,37,15.80
2021,03,28,15,38,12.50
2021,03,28,15,39,15.10
2021,03,28,15,40,10.40
2021,03,28,15,41,10.30
2021,03,28,15,42,13.40
2021,03,28,15,43,4.70
2021,03,28,15,44,9.90
2021,03,28,15,45,17.50
2021,03,28,15,46,12.20
2021,03,28,15,47,12.80
2021,03,28,15,48,8.20
2021,03,28,15,49,14.60
2021,03,28,15,50,15.90
2021,03,28,15,51,13.90
2021,03,28,15,52,13.10
2021,03,28,15,53,10.60
2021,03,28,15,54,14.50
2021,03,28,15,55,10.60
2021,03,28,15,56,12.40
2021,03,28,15,57,12.90
2021,03,28,15,58,14.30
2021,03,28,15,59,17.00
2021,03,28,16,00,6.40
2021,03,28,16,01,13.00
2021,03,28,16,02,9.90
2021,03,28,16,03,11.10
2021,03,28,16,04,14.10
2021,03,28,16,05,8.60
2021,03,28,16,06,12.60
2021,03,28,16,07,15.60
2021,03,28,16,08,13.50
2021,03,28,16,09,8.80
2021,03,28,16,10,13.00
2021,03,28,16,11,10.50
2021,03,28,16,12,9.70
2021,03,28,16,13,11.30
2021,03,28,16,14,8.50
2021,03,28,16,15,16.40
2021,03,28,16,16,8.60
2021,03,28,16,17,10.50
2021,03,28,16,18,13.70
2021,03,28,16,19,14.20
2021,03,28,16,20,16.80
2021,03,28,16,21,12.70
2021,03,28,16,22,11.80
2021,03,28,16,23,14.70
2021,03,28,16,24,14.80
2021,03,28,16,25,14.60
2021,03,28,16,26,13.60
2021,03,28,16,27,11.80
2021,03,28,16,28,15.60
2021,03,28,16,29,7.70
2021,03,28,16,30,16.40
2021,03,28,16,31,13.40
2021,03,28,16,32,12.20
2021,03,28,16,33,10.30
2021,03,28,16,34,16.30
2021,03,28,16,35,14.80
2021,03,28,16,36,13.20
2021,03,28,16,37,10.10
2021,03,28,16,38,13.30
2021,03,28,16,39,13.70
2021,03,28,16,40,13.60
2021,03,28,16,41,9.90
2021,03,28,16,42,12.30
2021,03,28,16,43,12.60
2021,03,28,16,44,12.20
2021,03,28,16,45,14.20
2021,03,28,16,46,15.60
2021,03,28,16,47,15.00
2021,03,28,16,48,17.00
2021,03,28,16,49,13.30
2021,03,28,16,50,11.60
2021,03,28,16,51,6.70
2021,03,28,16,52,9.90
2021,03,28,16,53,13.10
2021,03,28,16,54,11.30
2021,03,28,16,55,11.90
2021,03,28,16,56,15.20
2021,03,28,16,57,14.50
2021,03,28,16,58,5.90
2021,03,28,16,59,11.50
2021,03,28,17,00,13.40
2021,03,28,17,01,11.70
2021,03,28,17,02,12.60
2021,03,28,17,03,9.10
2021,03,28,17,04,11.70
2021,03,28,17,05,5.80
2021,03,28,17,06,7.60
2021,03,28,17,07,8.20
2021,03,28,17,08,13.80
2021,03,28,17,09,7.50
2021,03,28,17,10,7.30
2021,03,28,17,11,6.00
2021,03,28,17,12,12.30
2021,03,28,17,13,7.40
2021,03,28,17,14,14.30
2021,03,28,17,15,11.10
2021,03,28,17,16,19.20
2021,03,28,17,17,7.00
2021,03,28,17,18,18.10
2021,03,28,17,19,8.20
2021,03,28,17,20,12.60
2021,03,28,17,21,11.00
2021,03,28,17,22,13.70
2021,03,28,17,23,14.00
2021,03,28,17,24,12.60
2021,03,28,17,25,13.80
2021,03,28,17,26,8.90
2021,03,28,17,27,13.40
2021,03,28,17,28,8.10
2021,03,28,17,29,9.40
2021,03,28,17,30,12.50
2021,03,28,17,31,11.30
2021,03,28,17,32,13.00
2021,03,28,17,33,11.50
2021,03,28,17,34,13.10
2021,03,28,17,35,14.20
2021,03,28,17,36,9.90
2021,03,28,17,37,10.70
2021,03,28,17,38,16.10
2021,03,28,17,39,10.50
2021,03,28,17,40,10.80
2021,03,28,17,41,12.50
2021,03,28,17,42,10.00
2021,03,28,17,43,10.00
2021,03,28,17,44,12.70
2021,03,28,17,45,9.70
2021,03,28,17,46,12.90
2021,03,28,17,47,13.80
2021,03,28,17,48,8.00
2021,03,28,17,49,13.20
2021,03,28,17,50,13.00
2021,03,28,17,51,14.60